Location: Choisy
(48.7685°N, 2.4187°E)
Time: 04:33:36
(UTC+00:00)

BlueWalker 3 - Pass Details

Date: 06 March 2024
Orbit: 485 x 495 km, 53.2° (Epoch: 24 April)

Event Time Altitude Azimuth Distance (km) Brightness Sun altitude
Rises 19:06:52 0° 288° (WNW) 2,561 7.4 -14.7°
Reaches altitude 10° 19:09:41 10° 266° (W) 1,672 5.9 -15.2°
Maximum altitude 19:12:00 16° 228° (SW) 1,348 4.6 -15.5°
Drops below altitude 10° 19:14:19 10° 189° (S) 1,662 4.6 -15.9°
Enters shadow 19:16:17 - 172° (S) 2,252 5.1 -16.2°
